Time,TemperatureF,DewpointF,PressureIn,WindDirection,WindDirectionDegrees,WindSpeedMPH,WindSpeedGustMPH,Humidity,HourlyPrecipIn,Conditions,Clouds,dailyrainin,SoftwareType,DateUTC
2013-01-11 00:03:00,49.5,43.9,30.28,South,180,2.2,-999.0,81,-99.99,,,0.00,Acu-Link.com,2013-01-11 05:03:00,
2013-01-11 00:18:00,49.5,43.3,30.28,SSW,202,2.2,-999.0,79,-99.99,,,0.00,Acu-Link.com,2013-01-11 05:18:00,
2013-01-11 00:33:00,49.3,42.7,30.27,SE,135,2.7,-999.0,78,-99.99,,,0.00,Acu-Link.com,2013-01-11 05:33:00,
2013-01-11 00:48:00,49.1,40.8,30.27,ESE,112,4.2,-999.0,73,-99.99,,,0.00,Acu-Link.com,2013-01-11 05:48:00,
2013-01-11 01:03:00,48.9,41.0,30.25,ESE,112,1.7,-999.0,74,-99.99,,,0.00,Acu-Link.com,2013-01-11 06:03:00,
2013-01-11 01:19:00,48.9,41.3,30.24,NNE,22,2.2,-999.0,75,-99.99,,,0.00,Acu-Link.com,2013-01-11 06:19:00,
2013-01-11 01:34:00,48.9,41.3,30.24,SSW,202,4.2,-999.0,75,-99.99,,,0.00,Acu-Link.com,2013-01-11 06:34:00,
2013-01-11 01:49:00,48.9,41.3,30.24,ESE,112,0.0,-999.0,75,-99.99,,,0.00,Acu-Link.com,2013-01-11 06:49:00,
2013-01-11 02:04:00,48.9,41.3,30.23,NE,45,3.2,-999.0,75,-99.99,,,0.00,Acu-Link.com,2013-01-11 07:04:00,
2013-01-11 02:19:00,48.7,40.8,30.24,East,90,2.2,-999.0,74,-99.99,,,0.00,Acu-Link.com,2013-01-11 07:19:00,
2013-01-11 02:34:00,48.7,39.7,30.24,West,270,1.7,-999.0,71,-99.99,,,0.00,Acu-Link.com,2013-01-11 07:34:00,
2013-01-11 02:49:00,48.6,39.3,30.24,SE,135,2.2,-999.0,70,-99.99,,,0.00,Acu-Link.com,2013-01-11 07:49:00,
2013-01-11 03:04:00,48.4,39.1,30.23,WNW,292,1.7,-999.0,70,-99.99,,,0.00,Acu-Link.com,2013-01-11 08:04:00,
2013-01-11 03:19:00,48.4,39.1,30.23,NNW,337,0.0,-999.0,70,-99.99,,,0.00,Acu-Link.com,2013-01-11 08:19:00,
2013-01-11 03:34:00,48.0,40.1,30.22,NNE,22,2.2,-999.0,74,-99.99,,,0.00,Acu-Link.com,2013-01-11 08:34:00,
2013-01-11 03:50:00,46.6,43.5,30.21,SE,135,1.1,-999.0,89,-99.99,,,0.00,Acu-Link.com,2013-01-11 08:50:00,
2013-01-11 04:11:00,46.0,42.9,30.21,NNE,22,2.7,-999.0,89,-99.99,,,0.00,Acu-Link.com,2013-01-11 09:11:00,
2013-01-11 04:26:00,46.2,40.7,30.19,East,90,1.1,-999.0,81,-99.99,,,0.00,Acu-Link.com,2013-01-11 09:26:00,
2013-01-11 04:42:00,46.6,39.1,30.19,NNE,22,2.7,-999.0,75,-99.99,,,0.00,Acu-Link.com,2013-01-11 09:42:00,
2013-01-11 04:57:00,46.8,40.6,30.18,ESE,112,2.7,-999.0,79,-99.99,,,0.00,Acu-Link.com,2013-01-11 09:57:00,
2013-01-11 05:12:00,45.7,41.8,30.19,ENE,67,1.7,-999.0,86,-99.99,,,0.00,Acu-Link.com,2013-01-11 10:12:00,
2013-01-11 05:27:00,44.8,44.3,30.19,East,90,2.2,-999.0,98,-99.99,,,0.00,Acu-Link.com,2013-01-11 10:27:00,
2013-01-11 05:42:00,43.9,43.4,30.18,WSW,247,1.7,-999.0,98,-99.99,,,0.00,Acu-Link.com,2013-01-11 10:42:00,
2013-01-11 05:57:00,43.2,42.7,30.19,NNW,337,1.1,-999.0,98,-99.99,,,0.01,Acu-Link.com,2013-01-11 10:57:00,
2013-01-11 06:12:00,43.0,42.5,30.20,WNW,292,0.0,-999.0,98,-99.99,,,0.02,Acu-Link.com,2013-01-11 11:12:00,
2013-01-11 06:27:00,43.0,42.5,30.20,SSW,202,0.0,-999.0,98,-99.99,,,0.02,Acu-Link.com,2013-01-11 11:27:00,
2013-01-11 06:43:00,42.8,42.3,30.21,NNW,337,0.0,-999.0,98,-99.99,,,0.03,Acu-Link.com,2013-01-11 11:43:00,
2013-01-11 06:58:00,42.6,42.1,30.21,NNE,22,0.0,-999.0,98,-99.99,,,0.04,Acu-Link.com,2013-01-11 11:58:00,
2013-01-11 07:13:00,42.6,42.1,30.21,ESE,112,1.1,-999.0,98,-99.99,,,0.09,Acu-Link.com,2013-01-11 12:13:00,
2013-01-11 07:28:00,42.6,42.1,30.21,North,0,1.7,-999.0,98,-99.99,,,0.13,Acu-Link.com,2013-01-11 12:28:00,
2013-01-11 07:43:00,42.4,41.9,30.20,WNW,292,1.7,-999.0,98,-99.99,,,0.20,Acu-Link.com,2013-01-11 12:43:00,
2013-01-11 07:58:00,42.4,41.9,30.19,ESE,112,2.2,-999.0,98,-99.99,,,0.22,Acu-Link.com,2013-01-11 12:58:00,
2013-01-11 08:13:00,42.6,42.1,30.19,NNE,22,1.1,-999.0,98,-99.99,,,0.24,Acu-Link.com,2013-01-11 13:13:00,
2013-01-11 08:28:00,42.8,42.3,30.20,NNW,337,2.2,-999.0,98,-99.99,,,0.25,Acu-Link.com,2013-01-11 13:28:00,
2013-01-11 08:43:00,43.0,42.5,30.19,ESE,112,0.0,-999.0,98,-99.99,,,0.26,Acu-Link.com,2013-01-11 13:43:00,
2013-01-11 08:59:00,43.5,43.0,30.19,NE,45,1.7,-999.0,98,-99.99,,,0.26,Acu-Link.com,2013-01-11 13:59:00,
2013-01-11 09:14:00,43.7,43.2,30.19,NW,315,0.0,-999.0,98,-99.99,,,0.26,Acu-Link.com,2013-01-11 14:14:00,
2013-01-11 09:29:00,44.1,43.6,30.19,ESE,112,0.0,-999.0,98,-99.99,,,0.27,Acu-Link.com,2013-01-11 14:29:00,
2013-01-11 09:44:00,44.4,43.9,30.19,North,0,1.1,-999.0,98,-99.99,,,0.33,Acu-Link.com,2013-01-11 14:44:00,
2013-01-11 09:59:00,44.8,44.3,30.19,NW,315,0.0,-999.0,98,-99.99,,,0.35,Acu-Link.com,2013-01-11 14:59:00,
2013-01-11 10:14:00,45.7,45.2,30.17,ESE,112,1.1,-999.0,98,-99.99,,,0.38,Acu-Link.com,2013-01-11 15:14:00,
2013-01-11 10:29:00,46.2,45.7,30.18,West,270,2.2,-999.0,98,-99.99,,,0.38,Acu-Link.com,2013-01-11 15:29:00,
2013-01-11 10:44:00,46.8,46.3,30.18,WNW,292,2.2,-999.0,98,-99.99,,,0.38,Acu-Link.com,2013-01-11 15:44:00,
2013-01-11 10:59:00,46.8,46.3,30.17,NNE,22,1.1,-999.0,98,-99.99,,,0.38,Acu-Link.com,2013-01-11 15:59:00,
2013-01-11 11:14:00,46.8,46.3,30.15,North,0,1.7,-999.0,98,-99.99,,,0.38,Acu-Link.com,2013-01-11 16:14:00,
2013-01-11 11:30:00,47.1,46.6,30.14,East,90,2.2,-999.0,98,-99.99,,,0.38,Acu-Link.com,2013-01-11 16:30:00,
2013-01-11 11:45:00,48.0,47.5,30.13,NNE,22,0.0,-999.0,98,-99.99,,,0.38,Acu-Link.com,2013-01-11 16:45:00,
2013-01-11 12:00:00,48.2,47.7,30.12,NNW,337,0.0,-999.0,98,-99.99,,,0.38,Acu-Link.com,2013-01-11 17:00:00,
2013-01-11 12:15:00,49.1,48.6,30.11,NE,45,0.0,-999.0,98,-99.99,,,0.38,Acu-Link.com,2013-01-11 17:15:00,
2013-01-11 12:30:00,49.3,48.8,30.11,NNW,337,2.2,-999.0,98,-99.99,,,0.38,Acu-Link.com,2013-01-11 17:30:00,
2013-01-11 12:45:00,49.1,48.6,30.10,ENE,67,0.0,-999.0,98,-99.99,,,0.38,Acu-Link.com,2013-01-11 17:45:00,
2013-01-11 13:00:00,49.8,49.3,30.08,West,270,0.0,-999.0,98,-99.99,,,0.38,Acu-Link.com,2013-01-11 18:00:00,
2013-01-11 13:15:00,50.5,50.0,30.07,SSE,157,1.7,-999.0,98,-99.99,,,0.38,Acu-Link.com,2013-01-11 18:15:00,
2013-01-11 13:30:00,51.4,50.9,30.07,ESE,112,0.0,-999.0,98,-99.99,,,0.38,Acu-Link.com,2013-01-11 18:30:00,
2013-01-11 13:46:00,51.8,51.3,30.06,South,180,0.0,-999.0,98,-99.99,,,0.38,Acu-Link.com,2013-01-11 18:46:00,
2013-01-11 14:01:00,52.5,52.0,30.06,SSW,202,0.0,-999.0,98,-99.99,,,0.38,Acu-Link.com,2013-01-11 19:01:00,
2013-01-11 14:16:00,53.4,52.8,30.05,SSE,157,3.2,-999.0,98,-99.99,,,0.38,Acu-Link.com,2013-01-11 19:16:00,
2013-01-11 14:31:00,53.8,53.2,30.05,South,180,2.7,-999.0,98,-99.99,,,0.38,Acu-Link.com,2013-01-11 19:31:00,
2013-01-11 14:46:00,53.6,53.0,30.05,South,180,0.0,-999.0,98,-99.99,,,0.38,Acu-Link.com,2013-01-11 19:46:00,
2013-01-11 15:01:00,54.3,53.7,30.05,NNE,22,0.0,-999.0,98,-99.99,,,0.38,Acu-Link.com,2013-01-11 20:01:00,
2013-01-11 15:16:00,54.7,54.1,30.05,ESE,112,0.0,-999.0,98,-99.99,,,0.38,Acu-Link.com,2013-01-11 20:16:00,
2013-01-11 15:31:00,54.3,53.7,30.04,NNW,337,3.7,-999.0,98,-99.99,,,0.38,Acu-Link.com,2013-01-11 20:31:00,
2013-01-11 15:46:00,53.8,53.2,30.03,WSW,247,0.0,-999.0,98,-99.99,,,0.38,Acu-Link.com,2013-01-11 20:46:00,
2013-01-11 16:02:00,53.8,53.2,30.03,ESE,112,0.0,-999.0,98,-99.99,,,0.38,Acu-Link.com,2013-01-11 21:02:00,
2013-01-11 16:17:00,54.0,53.4,30.04,SE,135,0.0,-999.0,98,-99.99,,,0.38,Acu-Link.com,2013-01-11 21:17:00,
2013-01-11 16:32:00,54.0,53.4,30.03,WNW,292,2.7,-999.0,98,-99.99,,,0.38,Acu-Link.com,2013-01-11 21:32:00,
2013-01-11 16:47:00,54.0,53.4,30.02,South,180,2.2,-999.0,98,-99.99,,,0.38,Acu-Link.com,2013-01-11 21:47:00,
2013-01-11 17:02:00,54.0,53.4,30.02,ESE,112,0.0,-999.0,98,-99.99,,,0.38,Acu-Link.com,2013-01-11 22:02:00,
2013-01-11 17:17:00,53.8,53.2,30.03,SSW,202,1.1,-999.0,98,-99.99,,,0.38,Acu-Link.com,2013-01-11 22:17:00,
2013-01-11 17:32:00,53.4,52.8,30.03,NW,315,0.0,-999.0,98,-99.99,,,0.38,Acu-Link.com,2013-01-11 22:32:00,
2013-01-11 17:47:00,52.7,52.2,30.03,NW,315,0.0,-999.0,98,-99.99,,,0.38,Acu-Link.com,2013-01-11 22:47:00,
2013-01-11 18:02:00,52.3,51.8,30.02,SSW,202,0.0,-999.0,98,-99.99,,,0.38,Acu-Link.com,2013-01-11 23:02:00,
2013-01-11 18:18:00,52.2,51.7,30.03,NNW,337,0.0,-999.0,98,-99.99,,,0.38,Acu-Link.com,2013-01-11 23:18:00,
2013-01-11 18:33:00,52.0,51.5,30.03,North,0,1.7,-999.0,98,-99.99,,,0.38,Acu-Link.com,2013-01-11 23:33:00,
2013-01-11 18:48:00,51.4,50.9,30.03,SW,225,0.0,-999.0,98,-99.99,,,0.38,Acu-Link.com,2013-01-11 23:48:00,
2013-01-11 19:03:00,51.1,50.6,30.02,NW,315,1.1,-999.0,98,-99.99,,,0.38,Acu-Link.com,2013-01-12 00:03:00,
2013-01-11 19:18:00,50.7,50.2,30.02,NNE,22,0.0,-999.0,98,-99.99,,,0.38,Acu-Link.com,2013-01-12 00:18:00,
2013-01-11 19:33:00,50.5,50.0,30.02,NW,315,0.0,-999.0,98,-99.99,,,0.38,Acu-Link.com,2013-01-12 00:33:00,
2013-01-11 19:48:00,50.5,50.0,30.02,ESE,112,0.0,-999.0,98,-99.99,,,0.38,Acu-Link.com,2013-01-12 00:48:00,
2013-01-11 20:03:00,50.5,50.0,30.02,NE,45,0.0,-999.0,98,-99.99,,,0.38,Acu-Link.com,2013-01-12 01:03:00,
2013-01-11 20:18:00,50.5,50.0,30.00,South,180,0.0,-999.0,98,-99.99,,,0.38,Acu-Link.com,2013-01-12 01:18:00,
2013-01-11 20:33:00,50.5,50.0,30.01,WSW,247,0.0,-999.0,98,-99.99,,,0.38,Acu-Link.com,2013-01-12 01:33:00,
2013-01-11 20:49:00,50.7,50.2,30.01,ENE,67,0.0,-999.0,98,-99.99,,,0.38,Acu-Link.com,2013-01-12 01:49:00,
2013-01-11 21:04:00,50.9,50.4,30.02,SSW,202,0.0,-999.0,98,-99.99,,,0.38,Acu-Link.com,2013-01-12 02:04:00,
2013-01-11 21:19:00,50.9,50.4,30.02,SSE,157,0.0,-999.0,98,-99.99,,,0.38,Acu-Link.com,2013-01-12 02:19:00,
2013-01-11 21:34:00,50.9,50.4,30.02,East,90,0.0,-999.0,98,-99.99,,,0.38,Acu-Link.com,2013-01-12 02:34:00,
2013-01-11 21:49:00,50.9,50.4,30.01,ESE,112,0.0,-999.0,98,-99.99,,,0.38,Acu-Link.com,2013-01-12 02:49:00,
2013-01-11 22:04:00,51.1,50.6,30.01,SSW,202,0.0,-999.0,98,-99.99,,,0.38,Acu-Link.com,2013-01-12 03:04:00,
2013-01-11 22:19:00,51.1,50.6,30.00,NW,315,0.0,-999.0,98,-99.99,,,0.38,Acu-Link.com,2013-01-12 03:19:00,
2013-01-11 22:34:00,51.1,50.6,30.00,South,180,0.0,-999.0,98,-99.99,,,0.38,Acu-Link.com,2013-01-12 03:34:00,
2013-01-11 22:49:00,51.1,50.6,30.00,NW,315,0.0,-999.0,98,-99.99,,,0.38,Acu-Link.com,2013-01-12 03:49:00,
2013-01-11 23:05:00,51.1,50.6,30.00,North,0,0.0,-999.0,98,-99.99,,,0.38,Acu-Link.com,2013-01-12 04:05:00,
2013-01-11 23:20:00,51.1,50.6,30.00,South,180,0.0,-999.0,98,-99.99,,,0.38,Acu-Link.com,2013-01-12 04:20:00,
2013-01-11 23:35:00,51.1,50.6,29.99,West,270,0.0,-999.0,98,-99.99,,,0.38,Acu-Link.com,2013-01-12 04:35:00,
2013-01-11 23:50:00,51.1,50.6,29.99,NW,315,0.0,-999.0,98,-99.99,,,0.38,Acu-Link.com,2013-01-12 04:50:00,